This is the latest recevied weather packets stored in our database for station/object KC5DP. If no packets are shown the sender has not sent any weather packets the latest 10 day(s).
| Time | Temp. | Humidity | Pressure | Rain* | Wind** | Luminosity | Snow |
|---|---|---|---|---|---|---|---|
| 1777936718 | 23.33° C | 52% | 1012.8 hPa | 0 mm | - | 38 W/m² | - |
| 1777936415 | 23.33° C | 52% | 1012.9 hPa | 0 mm | - | 50 W/m² | - |
| 1777936111 | 23.33° C | 53% | 1013 hPa | 0 mm | - | 45 W/m² | - |
| 1777935809 | 23.33° C | 53% | 1013 hPa | 0 mm | - | 39 W/m² | - |
| 1777935507 | 23.33° C | 51% | 1013 hPa | 0 mm | - | 37 W/m² | - |
| 1777935203 | 23.89° C | 52% | 1012.9 hPa | 0 mm | - | 45 W/m² | - |
| 1777934901 | 23.89° C | 52% | 1013.2 hPa | 0 mm | - | 46 W/m² | - |
| 1777934598 | 23.89° C | 51% | 1013.2 hPa | 0 mm | - | 50 W/m² | - |
| 1777934294 | 23.89° C | 51% | 1013.1 hPa | 0 mm | - | 52 W/m² | - |
| 1777933990 | 24.44° C | 52% | 1013 hPa | 0 mm | - | 79 W/m² | - |
| 1777933687 | 24.44° C | 52% | 1013 hPa | 0 mm | - | 79 W/m² | - |
| 1777933383 | 24.44° C | 49% | 1013.2 hPa | 0 mm | - | 68 W/m² | - |
| 1777933081 | 24.44° C | 50% | 1013.2 hPa | 0 mm | - | 67 W/m² | - |
| 1777932778 | 25° C | 48% | 1013.2 hPa | 0 mm | - | 168 W/m² | - |
| 1777932475 | 25° C | 48% | 1013.2 hPa | 0 mm | - | 168 W/m² | - |
| 1777932172 | 25° C | 49% | 1013.2 hPa | 0 mm | - | 83 W/m² | - |
| 1777931869 | 24.44° C | 50% | 1013.1 hPa | 0 mm | - | 49 W/m² | - |
| 1777931566 | 24.44° C | 52% | 1013.6 hPa | 0 mm | - | 73 W/m² | - |
| 1777931261 | 24.44° C | 52% | 1013.6 hPa | 0 mm | - | 73 W/m² | - |
| 1777930958 | 24.44° C | 50% | 1013.3 hPa | 0 mm | - | 74 W/m² | - |
| 1777930655 | 25° C | 49% | 1013.4 hPa | 0 mm | - | 59 W/m² | - |
| 1777930351 | 25° C | 48% | 1013.5 hPa | 0 mm | - | 76 W/m² | - |
| 1777930049 | 24.44° C | 48% | 1013.5 hPa | 0 mm | - | 475 W/m² | - |
| 1777929745 | 25° C | 48% | 1013.5 hPa | 0 mm | - | 93 W/m² | - |
| 1777929443 | 25° C | 45% | 1013.8 hPa | 0 mm | - | 101 W/m² | - |
* Rain latest hour (hover to see other rain measurements)
** Current wind speed in m/s (hover to see current wind gust speed)